Regional Weather Roundup
Issued by NWS

Home | Current Version | Previous Version | Text Only | Print | Product List | Glossary Off
Versions: 1 2 3 4 5 6 7 8 9 10 11 12 13 14 15 16 17 18 19 20 21 22 23 24 25 26 27 28 29 30 31 32 33 34 35 36 37 38 39 40 41 42 43 44 45 46 47 48 49 50

000
ASUS46 KSTO 031109
RWRCA

NORTHERN AND CENTRAL CA REGIONAL WEATHER ROUNDUP
NATIONAL WEATHER SERVICE SACRAMENTO CA
400 AM PDT MON AUG 03 2015

NOTE: FAIR INDICATES FEW OR NO CLOUDS BELOW 12,000 FEET WITH NO
SIGNIFICANT WEATHER AND/OR OBSTRUCTIONS TO VISIBILITY.

CAZ001-003-031200-
NORTHWEST AREA

CITY           SKY/WX    TMP DP  RH WIND       PRES   REMARKS
CRESCENT CITY  CLOUDY    58  57  97 CALM      29.94F FOG
ARCATA         NOT AVBL
SHELTER COVE   NOT AVBL
UKIAH          CLEAR     59  54  83 S3        29.92R
$$

CAZ006-505>513-031200-
BAY AREA

CITY           SKY/WX    TMP DP  RH WIND       PRES   REMARKS
SANTA ROSA     CLOUDY    60  55  83 S3        29.92S
SAN RAFAEL     N/A       63  MM  MM MISG
NAPA           LGT RAIN  61  56  83 W16       29.92S
CONCORD        CLOUDY    64  55  72 SW10      29.92S
OAKLAND CITY   N/A       63  MM  MM MISG
OAKLAND        CLOUDY    65  56  72 W13       29.94S
SAN FRAN CITY  N/A       62  MM  76 MISG
SAN FRAN ARPT  MOCLDY    64  55  72 W9        29.94S
LIVERMORE      CLOUDY    66  56  70 W13       29.93S
HAYWARD        CLOUDY    64  56  75 W10       29.94S
REDWOOD CITY   N/A       MM  MM  MM MISG
MOFFETT ARPT   CLEAR     62  55  77 CALM      29.96R
SAN JOSE ARPT  PTCLDY    62  55  77 NW5       29.95R
$$
CAZ034-037-514>518-031200-
CENTRAL COAST

CITY           SKY/WX    TMP DP  RH WIND       PRES   REMARKS
WATSONVILLE    CLOUDY    59  55  87 CALM      29.95S
SALINAS        CLOUDY    64  56  75 W7        29.95R
MONTEREY       CLOUDY    64  56  75 W5        29.96S
PT PIEDRAS BLS NOT AVBL
SAN LUIS OBISP CLOUDY    62  57  83 NW8       29.93R
SANTA MARIA    CLOUDY    63  60  90 NW5       29.94R
$$
CAZ015-016-031200-
NORTHERN SACRAMENTO VALLEY

CITY           SKY/WX    TMP DP  RH WIND       PRES   REMARKS
REDDING        CLEAR     72  59  63 CALM      29.84R
RED BLUFF      CLEAR     71  57  61 SE6       29.85R
OROVILLE       CLEAR     67  57  70 S6        29.86R
$$
CAZ016>018-031200-
SOUTHERN SACRAMENTO VALLEY

CITY           SKY/WX    TMP DP  RH WIND       PRES   REMARKS
AUBURN         CLEAR     70  55  60 SE7       29.89F
BEALE AFB      CLEAR     65  55  70 S9        29.83R
LINCOLN        FAIR      64  54  68 SE15      29.85S
MARYSVILLE     CLEAR     64  55  72 SE7       29.85R
SAC INTL ARPT  CLEAR     62  56  80 SE13      29.83S
MATHER AIRPORT NOT AVBL
DOWNTOWN SAC   N/A       64  MM  MM MISG
SAC EXEC ARPT  CLEAR     62  56  80 S7        29.86R
VACAVILLE      CLEAR     67  55  65 SW10      29.84R
TRAVIS AFB     CLEAR     61  55  82 SW26G33   29.84R
$$
CAZ019>021-031200-
SAN JOAQUIN VALLEY

CITY           SKY/WX    TMP DP  RH WIND       PRES   REMARKS
STOCKTON       CLEAR     64  56  75 W13       29.88R
MODESTO        CLEAR     65  54  67 N10       29.86R
MERCED         CLEAR     65  53  65 NW9       29.85S
LEMOORE        CLEAR     68  50  52 NW8       29.86R
FRESNO         CLEAR     70  49  47 NW9       29.84S
HANFORD        CLEAR     71  50  47 NW8       29.84S
PORTERVILLE    CLEAR     68  57  68 CALM      29.86F
BAKERSFIELD    CLEAR     73  52  47 NW3       29.86S
$$
CAZ011-012-071-031200-
NORTHERN MOUNTAINS

CITY           SKY/WX    TMP DP  RH WIND       PRES   REMARKS
YREKA          MOCLDY    66  50  56 CALM      29.96S
MOUNT SHASTA   CLEAR     60  53  77 NE5       30.01S
ALTURAS        CLOUDY    57  56  96 CALM      30.05F
$$
CAZ011-012-071-031200-
SIERRA NEVADA MTNS

CITY           SKY/WX    TMP DP  RH WIND       PRES   REMARKS
BLUE CANYON    CLEAR     64  46  52 NW3       30.12R
TRUCKEE        FOG       43  43 100 S3        30.17S VSB 1/2
TAHOE VLY ARPT CLEAR     47  42  83 S5        30.17S
MAMMOTH LAKES  FAIR      54  37  54 NW5       30.23S
$$




USA.gov is the U.S. government's official web portal to all federal, state and local government web resources and services.